Theta_e
354 355 355 355 355 356 357 356 356 355 356 356 357 358 358 358 359 359 359 361 362 361 362 362 362 361 361 361 363 360 361 358 357 357 355 351 350 347 348 346 345 340
354 355 357 356 356 357 358 358 356 355 356 357 358 359 360 361 361 359 359 361 362 362 362 363 361 361 361 360 362 361 359 358 357 360 357 353 350 349 348 347 347 345
355 355 355 355 355 356 357 359 358 356 355 358 358 359 360 362 361 360 359 361 361 362 362 363 362 361 361 361 361 362 360 358 357 359 357 356 352 350 349 349 347 346
355 355 355 356 356 356 356 359 359 358 357 357 359 360 361 363 362 360 360 364 361 361 362 362 362 361 361 361 362 361 361 360 359 359 358 356 355 352 350 349 348 348
355 355 356 356 356 357 356 356 359 360 359 358 359 361 361 360 360 360 360 360 360 361 362 362 362 362 361 361 362 361 361 361 360 359 357 356 356 354 352 350 348 347
357 357 356 356 356 356 355 354 356 361 361 361 360 361 361 360 360 360 359 360 360 361 361 362 361 362 362 361 362 362 361 361 361 359 357 356 356 356 355 352 349 347
356 357 357 357 356 356 355 354 354 356 361 362 362 361 360 360 359 359 358 359 361 361 361 362 362 361 362 362 362 362 362 362 361 360 358 357 356 355 356 353 350 348
356 357 357 357 356 355 355 354 354 354 356 359 360 361 360 358 359 360 359 358 359 361 361 362 363 362 362 363 362 361 361 362 362 360 359 358 356 355 355 355 352 348
357 356 356 356 355 355 355 355 354 353 354 355 357 360 361 359 357 360 360 359 358 359 360 361 363 363 363 363 362 361 360 361 361 361 359 358 357 355 355 354 352 350
356 356 355 355 354 355 354 355 355 354 354 354 355 357 360 361 359 357 359 360 359 358 358 359 362 363 363 362 362 361 360 359 360 360 360 360 358 357 356 355 353 351
356 356 355 354 354 354 354 355 355 354 354 354 355 355 357 359 360 358 357 360 361 359 358 358 360 363 362 362 362 362 361 360 359 359 359 360 359 358 360 356 355 353
356 355 355 354 354 354 354 355 354 354 354 354 355 355 356 358 359 359 357 356 360 362 361 360 360 362 362 362 361 361 361 360 360 358 358 358 360 359 359 357 356 354
355 355 355 354 354 354 354 354 353 353 354 354 355 355 356 357 358 359 359 357 357 360 362 362 361 362 362 362 361 361 361 360 360 359 358 357 358 359 359 359 358 356
356 356 355 355 354 354 353 353 353 352 352 355 355 354 354 355 357 358 359 360 359 359 360 363 363 362 362 362 362 361 361 361 360 360 359 357 357 358 359 359 359 358
356 356 355 355 355 353 352 352 352 351 352 353 354 354 355 354 356 358 358 359 361 360 360 361 363 363 363 362 362 361 360 360 361 360 360 358 357 356 358 359 359 359
356 355 355 355 355 354 353 353 353 352 351 352 354 354 353 353 353 356 358 358 359 361 361 361 362 364 356 345 349 361 361 360 361 361 360 359 358 356 356 357 358 358
356 355 355 354 355 355 355 354 353 353 352 351 353 355 354 354 353 352 355 358 358 359 361 361 362 361 344 337 338 343 358 361 360 360 360 360 359 357 355 355 356 357
357 356 355 354 354 355 355 354 354 353 352 351 352 354 356 356 355 353 353 357 359 359 361 362 362 349 337 334 335 335 343 361 361 360 360 360 359 358 358 356 356 356
359 357 356 355 354 355 355 355 353 353 352 352 351 353 356 356 356 355 354 355 359 359 359 361 362 345 335 332 333 333 334 346 361 360 359 359 360 359 358 358 356 355
360 358 357 357 356 355 355 355 354 352 353 353 353 353 353 356 357 357 356 354 356 359 360 361 362 347 333 330 330 330 332 337 359 360 359 359 359 360 359 358 357 356
361 359 358 358 358 357 356 356 355 354 353 353 353 352 352 353 356 357 357 357 356 357 360 361 363 342 330 328 327 327 329 333 356 360 359 359 359 359 360 359 359 358
362 360 360 359 359 359 357 356 356 356 354 353 353 353 353 353 354 357 358 358 358 356 356 359 363 337 329 327 326 326 327 343 353 357 358 358 358 358 359 360 360 359
363 362 361 361 361 360 358 357 357 357 356 355 352 352 352 353 353 354 357 359 359 358 356 356 360 343 328 325 324 324 328 348 353 355 357 357 358 358 359 360 360 360
364 363 362 362 361 361 360 359 359 359 359 357 354 352 352 353 354 355 356 357 358 359 359 357 357 345 324 324 322 322 331 351 353 355 356 357 357 358 359 359 361 353
365 365 364 363 362 362 362 361 360 360 361 361 358 355 353 354 355 355 356 357 358 359 353 357 359 349 322 320 320 320 330 352 355 355 355 356 356 357 358 359 359 357
366 366 365 364 364 364 364 364 363 363 363 362 361 359 356 355 356 357 356 357 358 358 359 359 359 360 344 315 316 316 320 348 355 355 354 355 357 357 357 358 358 358
Wind_Speed
13 12 12 11 11 10 10 11 10 9 9 8 10 10 11 10 9 9 9 9 9 9 8 8 8 7 7 6 6 7 7 8 7 6 7 6 6 6 6 5 4 6
15 14 11 11 10 9 9 10 10 10 9 9 8 9 9 9 9 10 9 10 9 10 9 8 8 8 8 8 6 8 7 7 8 6 7 7 7 7 7 6 6 5
14 14 14 14 13 13 12 11 11 11 10 9 8 7 7 9 10 10 9 9 10 10 9 8 8 8 8 8 8 7 8 8 9 7 8 8 7 8 7 7 6 7
16 16 15 15 13 13 12 10 10 10 10 9 9 9 9 8 9 10 10 10 9 10 10 9 9 8 8 8 8 7 8 9 8 8 8 7 7 8 8 6 7 7
17 16 15 14 12 12 11 11 11 11 12 12 10 9 9 9 9 9 10 10 9 10 10 11 9 9 9 8 8 7 7 7 8 8 9 9 8 8 8 7 7 8
15 15 15 14 14 13 12 13 12 12 12 12 13 10 10 11 10 10 10 11 10 11 11 10 10 9 9 9 8 8 8 8 8 8 8 9 9 8 7 8 8 8
16 16 16 14 14 14 14 14 13 12 12 12 10 11 10 10 11 12 12 11 11 11 11 11 11 11 9 9 9 9 8 9 8 9 9 8 8 9 8 8 9 8
18 16 16 14 15 15 15 14 13 12 12 10 11 12 12 11 11 11 11 12 11 11 11 11 11 11 10 10 10 10 10 8 9 10 10 9 8 9 9 8 7 9
16 15 15 15 16 15 16 15 14 13 12 12 12 11 11 12 12 10 11 12 12 11 11 11 12 11 11 11 11 12 11 10 10 11 11 11 10 10 10 9 8 8
15 14 15 15 16 14 16 15 14 13 12 13 13 11 11 11 12 12 10 11 12 12 12 11 11 12 12 12 12 13 12 12 11 11 11 12 12 11 10 10 11 9
16 15 16 17 16 15 16 15 14 13 12 13 13 12 12 11 11 12 11 11 12 13 13 12 12 12 12 12 12 11 13 12 12 11 11 11 12 12 11 12 12 12
17 17 17 18 18 17 17 16 14 14 13 13 13 14 13 12 12 11 12 13 12 12 13 13 12 12 13 13 13 12 12 12 12 12 11 11 11 12 12 12 12 13
18 18 18 18 18 17 15 14 15 14 14 14 14 14 14 13 13 13 12 13 14 12 12 13 13 13 12 12 12 12 12 12 12 12 12 11 11 12 12 12 12 12
18 18 17 17 17 16 16 15 15 15 14 13 13 15 14 14 14 14 13 13 13 13 13 12 12 12 12 12 12 12 12 12 13 12 12 12 11 12 12 12 13 13
16 16 15 15 16 16 16 16 15 15 14 13 14 15 13 14 14 14 14 13 13 13 13 12 12 13 11 12 13 13 12 13 13 13 13 12 12 12 12 13 13 13
16 14 15 15 15 16 16 16 15 15 15 15 15 16 15 14 14 13 14 14 14 13 13 12 12 11 14 19 17 13 13 12 12 13 13 13 13 13 13 13 14 14
14 15 14 15 15 15 15 15 16 14 14 15 14 15 15 15 14 15 14 14 15 14 14 13 12 11 18 18 19 20 15 13 13 12 13 13 13 13 13 14 13 14
15 15 15 15 15 15 15 16 15 14 14 14 14 14 14 13 14 15 14 13 13 14 15 14 13 16 19 19 20 20 19 14 12 12 12 13 13 14 13 12 13 13
15 16 16 15 16 15 14 14 15 15 14 13 15 14 12 13 15 14 14 13 13 15 15 15 14 18 19 21 21 21 21 19 12 13 12 13 13 14 14 13 12 12
15 15 16 15 14 14 14 14 14 15 15 13 12 11 12 13 13 15 14 14 13 14 14 14 15 17 21 21 21 22 22 19 15 14 13 13 13 13 13 13 14 13
15 15 15 14 14 14 14 14 15 14 14 13 12 13 14 13 14 14 14 14 14 13 13 14 14 19 21 23 22 23 23 20 15 14 12 12 13 13 14 14 13 13
15 15 15 14 14 14 14 15 14 14 14 13 12 11 11 11 11 12 13 14 15 15 13 13 14 19 21 23 24 22 23 15 14 15 15 14 13 13 12 12 13 13
14 15 14 14 14 14 15 14 14 13 12 11 12 12 12 12 13 14 13 14 14 14 15 14 13 16 21 22 23 23 17 13 13 13 14 15 14 12 11 12 12 13
14 14 14 14 14 15 14 13 13 11 12 11 13 13 13 13 13 12 11 12 13 15 16 15 14 14 20 22 22 22 19 14 12 12 14 14 12 11 10 11 14 19
13 14 14 14 14 13 13 13 13 12 10 10 11 11 12 10 10 11 11 11 12 14 16 16 13 13 16 18 20 20 18 12 11 11 13 13 11 12 12 12 13 13
11 13 13 14 13 12 11 11 10 10 11 11 10 10 10 10 9 10 12 11 11 12 11 13 13 11 9 15 16 17 19 13 10 11 13 12 11 12 11 12 12 12
Wind_Direction
187 187 188 188 193 193 187 187 190 187 188 182 183 188 190 190 185 183 185 184 185 188 186 188 185 183 189 188 178 181 178 181 182 176 179 178 176 184 189 192 192 183
190 190 190 189 191 193 190 187 187 190 188 187 185 182 186 179 187 185 182 185 186 190 188 184 188 185 185 192 181 178 181 179 184 182 178 182 188 182 195 198 197 192
190 191 193 192 191 192 190 187 187 191 191 190 184 175 176 184 184 188 188 184 188 190 190 187 186 188 186 187 188 173 180 182 185 185 186 190 186 188 195 196 196 197
193 194 195 196 194 192 190 183 186 188 189 189 190 187 184 182 183 188 191 188 187 189 192 190 189 189 188 187 184 185 179 185 188 180 187 193 190 190 195 193 197 197
194 195 197 198 196 193 190 190 187 186 189 192 188 186 187 187 186 188 190 192 188 190 189 193 192 189 189 187 184 188 187 185 188 182 185 193 197 191 197 194 198 201
198 197 196 195 194 190 192 196 193 187 188 185 191 186 188 188 190 192 191 191 191 190 191 192 193 194 189 190 187 192 191 193 192 187 188 194 198 198 195 196 200 203
197 197 197 196 195 195 197 198 197 192 189 189 183 190 185 186 191 193 194 193 190 192 192 192 192 193 191 190 192 194 195 195 195 196 197 198 196 202 203 196 200 206
199 197 197 194 194 195 198 198 197 196 193 185 186 192 189 190 189 192 193 193 192 192 193 193 193 194 191 188 193 196 198 196 196 196 203 202 196 203 204 204 198 205
198 199 197 197 196 197 200 198 197 197 192 192 192 190 191 194 194 190 191 192 195 194 193 193 193 195 194 192 195 196 198 200 199 196 198 201 200 205 204 203 204 207
199 199 198 199 201 201 201 199 196 196 193 195 196 192 191 194 194 194 187 191 195 196 196 195 194 196 197 197 197 197 199 201 200 201 201 202 202 202 201 200 207 208
199 197 198 200 203 203 203 201 197 195 194 196 194 196 195 193 194 193 193 190 195 197 198 199 198 197 198 200 200 200 201 201 202 202 204 204 204 202 198 200 203 208
198 197 199 200 202 204 204 201 199 196 194 197 195 196 195 195 193 193 195 198 198 198 198 199 200 200 201 202 200 199 200 203 203 204 206 206 207 207 204 202 203 206
199 199 198 199 200 202 202 200 200 198 195 195 195 197 196 196 195 195 197 198 201 199 198 199 201 202 203 203 202 200 200 202 204 205 207 208 209 208 209 207 208 207
201 200 200 200 199 198 199 199 198 199 198 194 193 198 200 198 196 197 197 198 200 201 201 198 200 203 204 204 203 202 200 203 204 205 207 210 211 210 210 210 209 210
200 200 201 199 198 197 199 199 199 197 195 193 193 198 200 201 199 196 197 199 200 201 202 202 202 205 204 202 203 205 204 204 204 207 207 209 211 213 212 212 211 213
199 200 200 198 197 197 198 199 198 197 196 196 196 197 198 200 200 197 198 199 199 200 202 204 208 207 206 202 201 202 205 207 206 208 208 208 209 212 215 214 215 214
195 199 198 200 200 198 197 197 198 197 197 199 198 196 197 196 197 200 201 199 199 199 201 206 209 210 204 202 202 202 203 209 209 210 208 210 210 211 214 216 218 217
194 195 198 200 198 200 198 198 198 197 199 199 198 197 196 193 197 201 202 198 199 200 203 206 210 209 201 201 202 203 204 208 212 213 211 213 214 214 216 216 218 219
190 194 197 198 200 199 199 198 199 201 200 198 200 198 191 194 199 198 200 199 197 200 204 206 211 206 200 200 202 204 206 209 214 215 215 217 217 217 217 215 216 219
189 192 195 197 197 198 198 198 200 203 203 200 198 194 195 198 197 198 199 200 201 200 203 206 212 205 198 200 202 204 206 206 218 217 220 221 220 221 221 219 216 217
189 191 194 194 193 194 197 199 200 203 203 202 198 198 198 198 196 198 201 202 204 202 201 206 213 203 196 200 202 203 206 204 217 220 224 224 224 223 223 223 222 221
188 190 192 191 191 193 196 199 199 200 202 201 202 203 203 201 203 201 202 204 205 206 206 209 212 201 197 199 201 202 202 204 214 221 225 227 227 226 225 225 225 225
189 189 189 189 190 192 197 198 198 199 201 197 204 206 201 201 203 204 204 203 204 207 212 215 214 204 198 199 200 200 195 208 212 220 226 229 231 226 228 228 228 226
188 187 188 188 190 195 195 196 197 199 200 195 202 204 206 206 205 207 207 206 205 209 211 216 220 207 197 200 198 196 193 203 211 217 227 231 233 233 232 234 232 228
186 187 187 188 192 194 192 193 195 197 196 194 204 207 212 210 206 207 209 210 211 214 213 216 223 219 195 197 198 195 195 207 206 215 225 228 228 234 234 237 240 235
184 186 188 188 190 188 190 192 189 191 194 195 200 204 209 212 209 209 209 212 212 214 217 216 222 224 192 183 186 193 196 204 209 214 225 225 226 232 237 237 240 244